Year,Month,Day,Hour,Minute,Value (Times are PST for temperature in C)
2016,04,08,00,00,10.60
2016,04,08,00,01,10.50
2016,04,08,00,02,10.50
2016,04,08,00,03,10.50
2016,04,08,00,04,10.50
2016,04,08,00,05,10.50
2016,04,08,00,06,10.50
2016,04,08,00,07,10.50
2016,04,08,00,08,10.50
2016,04,08,00,09,10.50
2016,04,08,00,10,10.50
2016,04,08,00,11,10.50
2016,04,08,00,12,10.50
2016,04,08,00,13,10.40
2016,04,08,00,14,10.40
2016,04,08,00,15,10.40
2016,04,08,00,16,10.40
2016,04,08,00,17,10.40
2016,04,08,00,18,10.40
2016,04,08,00,19,10.40
2016,04,08,00,20,10.30
2016,04,08,00,21,10.30
2016,04,08,00,22,10.30
2016,04,08,00,23,10.30
2016,04,08,00,24,10.30
2016,04,08,00,25,10.30
2016,04,08,00,26,10.30
2016,04,08,00,27,10.30
2016,04,08,00,28,10.20
2016,04,08,00,29,10.20
2016,04,08,00,30,10.20
2016,04,08,00,31,10.20
2016,04,08,00,32,10.20
2016,04,08,00,33,10.20
2016,04,08,00,34,10.10
2016,04,08,00,35,10.10
2016,04,08,00,36,10.00
2016,04,08,00,37,10.00
2016,04,08,00,38,9.90
2016,04,08,00,39,9.90
2016,04,08,00,40,9.90
2016,04,08,00,41,9.80
2016,04,08,00,42,9.80
2016,04,08,00,43,9.80
2016,04,08,00,44,9.80
2016,04,08,00,45,9.80
2016,04,08,00,46,9.80
2016,04,08,00,47,9.70
2016,04,08,00,48,9.70
2016,04,08,00,49,9.70
2016,04,08,00,50,9.70
2016,04,08,00,51,9.70
2016,04,08,00,52,9.70
2016,04,08,00,53,9.70
2016,04,08,00,54,9.70
2016,04,08,00,55,9.70
2016,04,08,00,56,9.70
2016,04,08,00,57,9.60
2016,04,08,00,58,9.60
2016,04,08,00,59,9.60
2016,04,08,01,00,9.60
2016,04,08,01,01,9.60
2016,04,08,01,02,9.60
2016,04,08,01,03,9.60
2016,04,08,01,04,9.60
2016,04,08,01,05,9.60
2016,04,08,01,06,9.60
2016,04,08,01,07,9.60
2016,04,08,01,08,9.60
2016,04,08,01,09,9.60
2016,04,08,01,10,9.60
2016,04,08,01,11,9.60
2016,04,08,01,12,9.60
2016,04,08,01,13,9.60
2016,04,08,01,14,9.60
2016,04,08,01,15,9.60
2016,04,08,01,16,9.60
2016,04,08,01,17,9.60
2016,04,08,01,18,9.60
2016,04,08,01,19,9.60
2016,04,08,01,20,9.60
2016,04,08,01,21,9.60
2016,04,08,01,22,9.50
2016,04,08,01,23,9.50
2016,04,08,01,24,9.50
2016,04,08,01,25,9.50
2016,04,08,01,26,9.40
2016,04,08,01,27,9.40
2016,04,08,01,28,9.40
2016,04,08,01,29,9.40
2016,04,08,01,30,9.40
2016,04,08,01,31,9.40
2016,04,08,01,32,9.40
2016,04,08,01,33,9.40
2016,04,08,01,34,9.40
2016,04,08,01,35,9.30
2016,04,08,01,36,9.30
2016,04,08,01,37,9.30
2016,04,08,01,38,9.30
2016,04,08,01,39,9.30
2016,04,08,01,40,9.30
2016,04,08,01,41,9.30
2016,04,08,01,42,9.20
2016,04,08,01,43,9.20
2016,04,08,01,44,9.20
2016,04,08,01,45,9.20
2016,04,08,01,46,9.20
2016,04,08,01,47,9.20
2016,04,08,01,48,9.20
2016,04,08,01,49,9.20
2016,04,08,01,50,9.20
2016,04,08,01,51,9.20
2016,04,08,01,52,9.10
2016,04,08,01,53,9.10
2016,04,08,01,54,9.10
2016,04,08,01,55,9.10
2016,04,08,01,56,9.10
2016,04,08,01,57,9.10
2016,04,08,01,58,9.10
2016,04,08,01,59,9.10
2016,04,08,02,00,9.10
2016,04,08,02,01,9.10
2016,04,08,02,02,9.10
2016,04,08,02,03,9.10
2016,04,08,02,04,9.10
2016,04,08,02,05,9.10
2016,04,08,02,06,9.10
2016,04,08,02,07,9.10
2016,04,08,02,08,9.10
2016,04,08,02,09,9.10
2016,04,08,02,10,9.10
2016,04,08,02,11,9.10
2016,04,08,02,12,9.10
2016,04,08,02,13,9.10
2016,04,08,02,14,9.10
2016,04,08,02,15,9.10
2016,04,08,02,16,9.10
2016,04,08,02,17,9.10
2016,04,08,02,18,9.10
2016,04,08,02,19,9.10
2016,04,08,02,20,9.10
2016,04,08,02,21,9.10
2016,04,08,02,22,9.10
2016,04,08,02,23,9.10
2016,04,08,02,24,9.10
2016,04,08,02,25,9.10
2016,04,08,02,26,9.10
2016,04,08,02,27,9.10
2016,04,08,02,28,9.00
2016,04,08,02,29,9.00
2016,04,08,02,30,9.00
2016,04,08,02,31,9.00
2016,04,08,02,32,9.00
2016,04,08,02,33,8.90
2016,04,08,02,34,8.90
2016,04,08,02,35,8.90
2016,04,08,02,36,8.90
2016,04,08,02,37,8.90
2016,04,08,02,38,8.90
2016,04,08,02,39,8.90
2016,04,08,02,40,8.90
2016,04,08,02,41,8.90
2016,04,08,02,42,8.90
2016,04,08,02,43,8.90
2016,04,08,02,44,8.90
2016,04,08,02,45,8.90
2016,04,08,02,46,8.90
2016,04,08,02,47,8.90
2016,04,08,02,48,8.80
2016,04,08,02,49,8.80
2016,04,08,02,50,8.80
2016,04,08,02,51,8.80
2016,04,08,02,52,8.80
2016,04,08,02,53,8.80
2016,04,08,02,54,8.80
2016,04,08,02,55,8.80
2016,04,08,02,56,8.80
2016,04,08,02,57,8.80
2016,04,08,02,58,8.80
2016,04,08,02,59,8.80
2016,04,08,03,00,8.80
2016,04,08,03,01,8.80
2016,04,08,03,02,8.80
2016,04,08,03,03,8.80
2016,04,08,03,04,8.80
2016,04,08,03,05,8.80
2016,04,08,03,06,8.80
2016,04,08,03,07,8.80
2016,04,08,03,08,8.80
2016,04,08,03,09,8.80
2016,04,08,03,10,8.80
2016,04,08,03,11,8.80
2016,04,08,03,12,8.80
2016,04,08,03,13,8.80
2016,04,08,03,14,8.80
2016,04,08,03,15,8.80
2016,04,08,03,16,8.80
2016,04,08,03,17,8.70
2016,04,08,03,18,8.70
2016,04,08,03,19,8.70
2016,04,08,03,20,8.70
2016,04,08,03,21,8.70
2016,04,08,03,22,8.70
2016,04,08,03,23,8.70
2016,04,08,03,24,8.70
2016,04,08,03,25,8.70
2016,04,08,03,26,8.70
2016,04,08,03,27,8.60
2016,04,08,03,28,8.60
2016,04,08,03,29,8.60
2016,04,08,03,30,8.60
2016,04,08,03,31,8.60
2016,04,08,03,32,8.60
2016,04,08,03,33,8.60
2016,04,08,03,34,8.60
2016,04,08,03,35,8.60
2016,04,08,03,36,8.50
2016,04,08,03,37,8.50
2016,04,08,03,38,8.50
2016,04,08,03,39,8.50
2016,04,08,03,40,8.50
2016,04,08,03,41,8.50
2016,04,08,03,42,8.50
2016,04,08,03,43,8.50
2016,04,08,03,44,8.50
2016,04,08,03,45,8.50
2016,04,08,03,46,8.50
2016,04,08,03,47,8.50
2016,04,08,03,48,8.50
2016,04,08,03,49,8.50
2016,04,08,03,50,8.50
2016,04,08,03,51,8.50
2016,04,08,03,52,8.50
2016,04,08,03,53,8.50
2016,04,08,03,54,8.50
2016,04,08,03,55,8.50
2016,04,08,03,56,8.50
2016,04,08,03,57,8.40
2016,04,08,03,58,8.40
2016,04,08,03,59,8.40
2016,04,08,04,00,8.40
2016,04,08,04,01,8.40
2016,04,08,04,02,8.40
2016,04,08,04,03,8.40
2016,04,08,04,04,8.40
2016,04,08,04,05,8.40
2016,04,08,04,06,8.40
2016,04,08,04,07,8.40
2016,04,08,04,08,8.40
2016,04,08,04,09,8.40
2016,04,08,04,10,8.40
2016,04,08,04,11,8.30
2016,04,08,04,12,8.40
2016,04,08,04,13,8.40
2016,04,08,04,14,8.40
2016,04,08,04,15,8.40
2016,04,08,04,16,8.40
2016,04,08,04,17,8.40
2016,04,08,04,18,8.40
2016,04,08,04,19,8.30
2016,04,08,04,20,8.30
2016,04,08,04,21,8.30
2016,04,08,04,22,8.30
2016,04,08,04,23,8.20
2016,04,08,04,24,8.20
2016,04,08,04,25,8.20
2016,04,08,04,26,8.20
2016,04,08,04,27,8.20
2016,04,08,04,28,8.20
2016,04,08,04,29,8.20
2016,04,08,04,30,8.20
2016,04,08,04,31,8.20
2016,04,08,04,32,8.20
2016,04,08,04,33,8.20
2016,04,08,04,34,8.20
2016,04,08,04,35,8.20
2016,04,08,04,36,8.20
2016,04,08,04,37,8.20
2016,04,08,04,38,8.20
2016,04,08,04,39,8.20
2016,04,08,04,40,8.20
2016,04,08,04,41,8.20
2016,04,08,04,42,8.20
2016,04,08,04,43,8.10
2016,04,08,04,44,8.10
2016,04,08,04,45,8.10
2016,04,08,04,46,8.00
2016,04,08,04,47,8.00
2016,04,08,04,48,8.00
2016,04,08,04,49,8.00
2016,04,08,04,50,8.00
2016,04,08,04,51,8.00
2016,04,08,04,52,8.00
2016,04,08,04,53,8.00
2016,04,08,04,54,8.00
2016,04,08,04,55,8.00
2016,04,08,04,56,8.00
2016,04,08,04,57,8.00
2016,04,08,04,58,8.00
2016,04,08,04,59,8.00
2016,04,08,05,00,8.00
2016,04,08,05,01,8.00
2016,04,08,05,02,8.00
2016,04,08,05,03,8.00
2016,04,08,05,04,8.00
2016,04,08,05,05,8.00
2016,04,08,05,06,8.00
2016,04,08,05,07,8.00
2016,04,08,05,08,8.00
2016,04,08,05,09,8.00
2016,04,08,05,10,8.00
2016,04,08,05,11,8.00
2016,04,08,05,12,8.00
2016,04,08,05,13,8.00
2016,04,08,05,14,8.10
2016,04,08,05,15,8.10
2016,04,08,05,16,8.10
2016,04,08,05,17,8.10
2016,04,08,05,18,8.10
2016,04,08,05,19,8.10
2016,04,08,05,20,8.00
2016,04,08,05,21,8.10
2016,04,08,05,22,8.00
2016,04,08,05,23,8.00
2016,04,08,05,24,8.00
2016,04,08,05,25,8.10
2016,04,08,05,26,8.10
2016,04,08,05,27,8.10
2016,04,08,05,28,8.10
2016,04,08,05,29,8.10
2016,04,08,05,30,8.00
2016,04,08,05,31,8.00
2016,04,08,05,32,8.00
2016,04,08,05,33,8.00
2016,04,08,05,34,7.90
2016,04,08,05,35,7.90
2016,04,08,05,36,7.90
2016,04,08,05,37,7.90
2016,04,08,05,38,7.90
2016,04,08,05,39,7.90
2016,04,08,05,40,7.90
2016,04,08,05,41,7.90
2016,04,08,05,42,7.90
2016,04,08,05,43,7.90
2016,04,08,05,44,7.90
2016,04,08,05,45,7.90
2016,04,08,05,46,7.90
2016,04,08,05,47,7.90
2016,04,08,05,48,7.90
2016,04,08,05,49,7.90
2016,04,08,05,50,7.80
2016,04,08,05,51,7.80
2016,04,08,05,52,7.80
2016,04,08,05,53,7.80
2016,04,08,05,54,7.70
2016,04,08,05,55,7.70
2016,04,08,05,56,7.70
2016,04,08,05,57,7.70
2016,04,08,05,58,7.70
2016,04,08,05,59,7.60
2016,04,08,06,00,7.60
2016,04,08,06,01,7.60
2016,04,08,06,02,7.60
2016,04,08,06,03,7.60
2016,04,08,06,04,7.60
2016,04,08,06,05,7.60
2016,04,08,06,06,7.60
2016,04,08,06,07,7.60
2016,04,08,06,08,7.60
2016,04,08,06,09,7.60
2016,04,08,06,10,7.60
2016,04,08,06,11,7.60
2016,04,08,06,12,7.60
2016,04,08,06,13,7.60
2016,04,08,06,14,7.60
2016,04,08,06,15,7.60
2016,04,08,06,16,7.60
2016,04,08,06,17,7.60
2016,04,08,06,18,7.60
2016,04,08,06,19,7.60
2016,04,08,06,20,7.60
2016,04,08,06,21,7.60
2016,04,08,06,22,7.70
2016,04,08,06,23,7.70
2016,04,08,06,24,7.70
2016,04,08,06,25,7.70
2016,04,08,06,26,7.70
2016,04,08,06,27,7.70
2016,04,08,06,28,7.60
2016,04,08,06,29,7.60
2016,04,08,06,30,7.60
2016,04,08,06,31,7.60
2016,04,08,06,32,7.60
2016,04,08,06,33,7.60
2016,04,08,06,34,7.50
2016,04,08,06,35,7.50
2016,04,08,06,36,7.50
2016,04,08,06,37,7.50
2016,04,08,06,38,7.50
2016,04,08,06,39,7.50
2016,04,08,06,40,7.60
2016,04,08,06,41,7.60
2016,04,08,06,42,7.60
2016,04,08,06,43,7.60
2016,04,08,06,44,7.60
2016,04,08,06,45,7.60
2016,04,08,06,46,7.60
2016,04,08,06,47,7.70
2016,04,08,06,48,7.70
2016,04,08,06,49,7.70
2016,04,08,06,50,7.70
2016,04,08,06,51,7.70
2016,04,08,06,52,7.70
2016,04,08,06,53,7.70
2016,04,08,06,54,7.70
2016,04,08,06,55,7.80
2016,04,08,06,56,7.80
2016,04,08,06,57,7.80
2016,04,08,06,58,7.80
2016,04,08,06,59,7.80
2016,04,08,07,00,7.80
2016,04,08,07,01,7.90
2016,04,08,07,02,7.90
2016,04,08,07,03,7.90
2016,04,08,07,04,7.80
2016,04,08,07,05,7.80
2016,04,08,07,06,7.80
2016,04,08,07,07,7.80
2016,04,08,07,08,7.80
2016,04,08,07,09,7.80
2016,04,08,07,10,7.80
2016,04,08,07,11,7.80
2016,04,08,07,12,7.80
2016,04,08,07,13,7.80
2016,04,08,07,14,7.80
2016,04,08,07,15,7.80
2016,04,08,07,16,7.80
2016,04,08,07,17,7.80
2016,04,08,07,18,7.80
2016,04,08,07,19,7.80
2016,04,08,07,20,7.80
2016,04,08,07,21,7.80
2016,04,08,07,22,7.80
2016,04,08,07,23,7.80
2016,04,08,07,24,7.80
2016,04,08,07,25,7.80
2016,04,08,07,26,7.80
2016,04,08,07,27,7.80
2016,04,08,07,28,7.80
2016,04,08,07,29,7.80
2016,04,08,07,30,7.80
2016,04,08,07,31,7.90
2016,04,08,07,32,7.90
2016,04,08,07,33,7.90
2016,04,08,07,34,8.00
2016,04,08,07,35,8.10
2016,04,08,07,36,8.10
2016,04,08,07,37,8.20
2016,04,08,07,38,8.20
2016,04,08,07,39,8.30
2016,04,08,07,40,8.30
2016,04,08,07,41,8.40
2016,04,08,07,42,8.50
2016,04,08,07,43,8.50
2016,04,08,07,44,8.60
2016,04,08,07,45,8.70
2016,04,08,07,46,8.80
2016,04,08,07,47,8.80
2016,04,08,07,48,8.90
2016,04,08,07,49,8.90
2016,04,08,07,50,9.00
2016,04,08,07,51,9.10
2016,04,08,07,52,9.10
2016,04,08,07,53,9.20
2016,04,08,07,54,9.20
2016,04,08,07,55,9.30
2016,04,08,07,56,9.40
2016,04,08,07,57,9.50
2016,04,08,07,58,9.60
2016,04,08,07,59,9.70
2016,04,08,08,00,9.80
2016,04,08,08,01,9.90
2016,04,08,08,02,9.90
2016,04,08,08,03,10.00
2016,04,08,08,04,10.10
2016,04,08,08,05,10.10
2016,04,08,08,06,10.20
2016,04,08,08,07,10.30
2016,04,08,08,08,10.40
2016,04,08,08,09,10.50
2016,04,08,08,10,10.60
2016,04,08,08,11,10.70
2016,04,08,08,12,10.80
2016,04,08,08,13,10.90
2016,04,08,08,14,11.00
2016,04,08,08,15,11.00
2016,04,08,08,16,11.10
2016,04,08,08,17,11.20
2016,04,08,08,18,11.40
2016,04,08,08,19,11.60
2016,04,08,08,20,11.70
2016,04,08,08,21,11.90
2016,04,08,08,22,12.10
2016,04,08,08,23,12.20
2016,04,08,08,24,12.30
2016,04,08,08,25,12.50
2016,04,08,08,26,12.60
2016,04,08,08,27,12.70
2016,04,08,08,28,12.90
2016,04,08,08,29,13.00
2016,04,08,08,30,13.10
2016,04,08,08,31,13.30
2016,04,08,08,32,13.40
2016,04,08,08,33,13.50
2016,04,08,08,34,13.60
2016,04,08,08,35,13.70
2016,04,08,08,36,13.80
2016,04,08,08,37,13.90
2016,04,08,08,38,13.90
2016,04,08,08,39,13.90
2016,04,08,08,40,14.00
2016,04,08,08,41,14.00
2016,04,08,08,42,14.10
2016,04,08,08,43,14.10
2016,04,08,08,44,14.20
2016,04,08,08,45,14.30
2016,04,08,08,46,14.30
2016,04,08,08,47,14.40
2016,04,08,08,48,14.50
2016,04,08,08,49,14.60
2016,04,08,08,50,14.70
2016,04,08,08,51,14.80
2016,04,08,08,52,14.80
2016,04,08,08,53,14.90
2016,04,08,08,54,14.90
2016,04,08,08,55,15.00
2016,04,08,08,56,15.00
2016,04,08,08,57,15.10
2016,04,08,08,58,15.10
2016,04,08,08,59,15.20
2016,04,08,09,00,15.30
2016,04,08,09,01,15.40
2016,04,08,09,02,15.40
2016,04,08,09,03,15.50
2016,04,08,09,04,15.70
2016,04,08,09,05,15.70
2016,04,08,09,06,15.80
2016,04,08,09,07,15.90
2016,04,08,09,08,15.90
2016,04,08,09,09,15.90
2016,04,08,09,10,15.90
2016,04,08,09,11,15.90
2016,04,08,09,12,15.90
2016,04,08,09,13,16.00
2016,04,08,09,14,16.10
2016,04,08,09,15,16.10
2016,04,08,09,16,16.10
2016,04,08,09,17,16.10
2016,04,08,09,18,16.10
2016,04,08,09,19,16.20
2016,04,08,09,20,16.20
2016,04,08,09,21,16.30
2016,04,08,09,22,16.40
2016,04,08,09,23,16.40
2016,04,08,09,24,16.40
2016,04,08,09,25,16.40
2016,04,08,09,26,16.30
2016,04,08,09,27,16.30
2016,04,08,09,28,16.30
2016,04,08,09,29,16.40
2016,04,08,09,30,16.40
2016,04,08,09,31,16.50
2016,04,08,09,32,16.60
2016,04,08,09,33,16.60
2016,04,08,09,34,16.60
2016,04,08,09,35,16.60
2016,04,08,09,36,16.60
2016,04,08,09,37,16.60
2016,04,08,09,38,16.60
2016,04,08,09,39,16.70
2016,04,08,09,40,16.80
2016,04,08,09,41,16.80
2016,04,08,09,42,16.80
2016,04,08,09,43,16.80
2016,04,08,09,44,16.90
2016,04,08,09,45,16.90
2016,04,08,09,46,17.00
2016,04,08,09,47,17.00
2016,04,08,09,48,17.10
2016,04,08,09,49,17.10
2016,04,08,09,50,17.10
2016,04,08,09,51,17.10
2016,04,08,09,52,17.00
2016,04,08,09,53,17.00
2016,04,08,09,54,17.00
2016,04,08,09,55,17.10
2016,04,08,09,56,17.20
2016,04,08,09,57,17.30
2016,04,08,09,58,17.40
2016,04,08,09,59,17.40
2016,04,08,10,00,17.30
2016,04,08,10,01,17.30
2016,04,08,10,02,17.30
2016,04,08,10,03,17.30
2016,04,08,10,04,17.40
2016,04,08,10,05,17.50
2016,04,08,10,06,17.50
2016,04,08,10,07,17.60
2016,04,08,10,08,17.70
2016,04,08,10,09,17.80
2016,04,08,10,10,17.90
2016,04,08,10,11,18.00
2016,04,08,10,12,18.10
2016,04,08,10,13,18.20
2016,04,08,10,14,18.20
2016,04,08,10,15,18.20
2016,04,08,10,16,18.20
2016,04,08,10,17,18.20
2016,04,08,10,18,18.10
2016,04,08,10,19,18.10
2016,04,08,10,20,18.10
2016,04,08,10,21,18.20
2016,04,08,10,22,18.20
2016,04,08,10,23,18.20
2016,04,08,10,24,18.20
2016,04,08,10,25,18.20
2016,04,08,10,26,18.30
2016,04,08,10,27,18.30
2016,04,08,10,28,18.40
2016,04,08,10,29,18.40
2016,04,08,10,30,18.50
2016,04,08,10,31,18.60
2016,04,08,10,32,18.60
2016,04,08,10,33,18.60
2016,04,08,10,34,18.70
2016,04,08,10,35,18.70
2016,04,08,10,36,18.70
2016,04,08,10,37,18.80
2016,04,08,10,38,18.80
2016,04,08,10,39,18.80
2016,04,08,10,40,18.90
2016,04,08,10,41,18.90
2016,04,08,10,42,18.90
2016,04,08,10,43,18.90
2016,04,08,10,44,18.90
2016,04,08,10,45,18.90
2016,04,08,10,46,18.90
2016,04,08,10,47,18.90
2016,04,08,10,48,18.90
2016,04,08,10,49,18.80
2016,04,08,10,50,18.80
2016,04,08,10,51,18.90
2016,04,08,10,52,18.90
2016,04,08,10,53,19.00
2016,04,08,10,54,19.00
2016,04,08,10,55,19.10
2016,04,08,10,56,19.10
2016,04,08,10,57,19.20
2016,04,08,10,58,19.20
2016,04,08,10,59,19.30
2016,04,08,11,00,19.40
2016,04,08,11,01,19.50
2016,04,08,11,02,19.60
2016,04,08,11,03,19.60
2016,04,08,11,04,19.60
2016,04,08,11,05,19.50
2016,04,08,11,06,19.40
2016,04,08,11,07,19.40
2016,04,08,11,08,19.40
2016,04,08,11,09,19.50
2016,04,08,11,10,19.60
2016,04,08,11,11,19.60
2016,04,08,11,12,19.70
2016,04,08,11,13,19.80
2016,04,08,11,14,19.80
2016,04,08,11,15,19.80
2016,04,08,11,16,19.90
2016,04,08,11,17,20.00
2016,04,08,11,18,20.10
2016,04,08,11,19,20.10
2016,04,08,11,20,20.20
2016,04,08,11,21,20.20
2016,04,08,11,22,20.30
2016,04,08,11,23,20.30
2016,04,08,11,24,20.40
2016,04,08,11,25,20.50
2016,04,08,11,26,20.50
2016,04,08,11,27,20.50
2016,04,08,11,28,20.60
2016,04,08,11,29,20.60
2016,04,08,11,30,20.60
2016,04,08,11,31,20.70
2016,04,08,11,32,20.80
2016,04,08,11,33,20.80
2016,04,08,11,34,20.90
2016,04,08,11,35,21.00
2016,04,08,11,36,21.10
2016,04,08,11,37,21.30
2016,04,08,11,38,21.40
2016,04,08,11,39,21.50
2016,04,08,11,40,21.50
2016,04,08,11,41,21.40
2016,04,08,11,42,21.40
2016,04,08,11,43,21.50
2016,04,08,11,44,21.60
2016,04,08,11,45,21.60
2016,04,08,11,46,21.70
2016,04,08,11,47,21.80
2016,04,08,11,48,21.80
2016,04,08,11,49,21.90
2016,04,08,11,50,21.90
2016,04,08,11,51,21.90
2016,04,08,11,52,22.00
2016,04,08,11,53,22.10
2016,04,08,11,54,22.20
2016,04,08,11,55,22.30
2016,04,08,11,56,22.40
2016,04,08,11,57,22.50
2016,04,08,11,58,22.70
2016,04,08,11,59,22.80
2016,04,08,12,00,22.80
2016,04,08,12,01,22.90
2016,04,08,12,02,23.00
2016,04,08,12,03,23.20
2016,04,08,12,04,23.30
2016,04,08,12,05,23.30
2016,04,08,12,06,23.40
2016,04,08,12,07,23.40
2016,04,08,12,08,23.40
2016,04,08,12,09,23.50
2016,04,08,12,10,23.60
2016,04,08,12,11,23.70
2016,04,08,12,12,23.70
2016,04,08,12,13,23.80
2016,04,08,12,14,23.80
2016,04,08,12,15,23.90
2016,04,08,12,16,23.80
2016,04,08,12,17,23.80
2016,04,08,12,18,23.70
2016,04,08,12,19,23.60
2016,04,08,12,20,23.70
2016,04,08,12,21,23.70
2016,04,08,12,22,23.60
2016,04,08,12,23,23.60
2016,04,08,12,24,23.60
2016,04,08,12,25,23.50
2016,04,08,12,26,23.60
2016,04,08,12,27,23.60
2016,04,08,12,28,23.70
2016,04,08,12,29,23.80
2016,04,08,12,30,23.90
2016,04,08,12,31,24.00
2016,04,08,12,32,24.00
2016,04,08,12,33,24.10
2016,04,08,12,34,24.20
2016,04,08,12,35,24.30
2016,04,08,12,36,24.40
2016,04,08,12,37,24.40
2016,04,08,12,38,24.40
2016,04,08,12,39,24.40
2016,04,08,12,40,24.50
2016,04,08,12,41,24.60
2016,04,08,12,42,24.70
2016,04,08,12,43,24.80
2016,04,08,12,44,24.90
2016,04,08,12,45,24.90
2016,04,08,12,46,24.90
2016,04,08,12,47,24.90
2016,04,08,12,48,24.90
2016,04,08,12,49,24.90
2016,04,08,12,50,24.90
2016,04,08,12,51,24.80
2016,04,08,12,52,24.80
2016,04,08,12,53,24.80
2016,04,08,12,54,24.70
2016,04,08,12,55,24.70
2016,04,08,12,56,24.70
2016,04,08,12,57,24.70
2016,04,08,12,58,24.80
2016,04,08,12,59,24.70
2016,04,08,13,00,24.70
2016,04,08,13,01,24.60
2016,04,08,13,02,24.60
2016,04,08,13,03,24.60
2016,04,08,13,04,24.50
2016,04,08,13,05,24.50
2016,04,08,13,06,24.40
2016,04,08,13,07,24.20
2016,04,08,13,08,24.00
2016,04,08,13,09,23.90
2016,04,08,13,10,23.70
2016,04,08,13,11,23.50
2016,04,08,13,12,23.40
2016,04,08,13,13,23.10
2016,04,08,13,14,22.60
2016,04,08,13,15,22.20
2016,04,08,13,16,22.00
2016,04,08,13,17,21.80
2016,04,08,13,18,21.70
2016,04,08,13,19,21.60
2016,04,08,13,20,21.60
2016,04,08,13,21,21.70
2016,04,08,13,22,21.70
2016,04,08,13,23,21.60
2016,04,08,13,24,21.60
2016,04,08,13,25,21.50
2016,04,08,13,26,21.30
2016,04,08,13,27,21.10
2016,04,08,13,28,21.00
2016,04,08,13,29,20.90
2016,04,08,13,30,20.90
2016,04,08,13,31,20.90
2016,04,08,13,32,20.90
2016,04,08,13,33,20.90
2016,04,08,13,34,20.90
2016,04,08,13,35,21.00
2016,04,08,13,36,21.00
2016,04,08,13,37,21.10
2016,04,08,13,38,21.10
2016,04,08,13,39,21.10
2016,04,08,13,40,21.10
2016,04,08,13,41,21.20
2016,04,08,13,42,21.30
2016,04,08,13,43,21.30
2016,04,08,13,44,21.50
2016,04,08,13,45,21.60
2016,04,08,13,46,21.70
2016,04,08,13,47,21.70
2016,04,08,13,48,21.80
2016,04,08,13,49,21.80
2016,04,08,13,50,21.90
2016,04,08,13,51,22.00
2016,04,08,13,52,22.10
2016,04,08,13,53,22.10
2016,04,08,13,54,22.20
2016,04,08,13,55,22.20
2016,04,08,13,56,22.10
2016,04,08,13,57,22.00
2016,04,08,13,58,21.90
2016,04,08,13,59,21.80
2016,04,08,14,00,21.80
2016,04,08,14,01,21.70
2016,04,08,14,02,21.60
2016,04,08,14,03,21.60
2016,04,08,14,04,21.60
2016,04,08,14,05,21.60
2016,04,08,14,06,21.60
2016,04,08,14,07,21.60
2016,04,08,14,08,21.50
2016,04,08,14,09,21.50
2016,04,08,14,10,21.50
2016,04,08,14,11,21.50
2016,04,08,14,12,21.50
2016,04,08,14,13,21.50
2016,04,08,14,14,21.40
2016,04,08,14,15,21.30
2016,04,08,14,16,21.30
2016,04,08,14,17,21.30
2016,04,08,14,18,21.30
2016,04,08,14,19,21.40
2016,04,08,14,20,21.30
2016,04,08,14,21,21.20
2016,04,08,14,22,21.20
2016,04,08,14,23,21.20
2016,04,08,14,24,21.20
2016,04,08,14,25,21.20
2016,04,08,14,26,21.20
2016,04,08,14,27,21.20
2016,04,08,14,28,21.10
2016,04,08,14,29,21.00
2016,04,08,14,30,21.00
2016,04,08,14,31,21.00
2016,04,08,14,32,20.90
2016,04,08,14,33,20.90
2016,04,08,14,34,20.90
2016,04,08,14,35,20.90
2016,04,08,14,36,20.90
2016,04,08,14,37,21.00
2016,04,08,14,38,21.10
2016,04,08,14,39,21.30
2016,04,08,14,40,21.40
2016,04,08,14,41,21.50
2016,04,08,14,42,21.60
2016,04,08,14,43,21.80
2016,04,08,14,44,22.00
2016,04,08,14,45,22.10
2016,04,08,14,46,22.20
2016,04,08,14,47,22.30
2016,04,08,14,48,22.30
2016,04,08,14,49,22.30
2016,04,08,14,50,22.30
2016,04,08,14,51,22.30
2016,04,08,14,52,22.30
2016,04,08,14,53,22.20
2016,04,08,14,54,22.00
2016,04,08,14,55,21.80
2016,04,08,14,56,21.70
2016,04,08,14,57,21.60
2016,04,08,14,58,21.50
2016,04,08,14,59,21.40
2016,04,08,15,00,21.30
2016,04,08,15,01,21.30
2016,04,08,15,02,21.30
2016,04,08,15,03,21.30
2016,04,08,15,04,21.30
2016,04,08,15,05,21.40
2016,04,08,15,06,21.50
2016,04,08,15,07,21.60
2016,04,08,15,08,21.60
2016,04,08,15,09,21.70
2016,04,08,15,10,21.70
2016,04,08,15,11,21.80
2016,04,08,15,12,22.00
2016,04,08,15,13,22.10
2016,04,08,15,14,22.20
2016,04,08,15,15,22.30
2016,04,08,15,16,22.40
2016,04,08,15,17,22.50
2016,04,08,15,18,22.70
2016,04,08,15,19,22.80
2016,04,08,15,20,22.90
2016,04,08,15,21,22.90
2016,04,08,15,22,22.90
2016,04,08,15,23,22.80
2016,04,08,15,24,22.80
2016,04,08,15,25,22.80
2016,04,08,15,26,22.70
2016,04,08,15,27,22.60
2016,04,08,15,28,22.40
2016,04,08,15,29,22.30
2016,04,08,15,30,22.20
2016,04,08,15,31,22.00
2016,04,08,15,32,21.80
2016,04,08,15,33,21.60
2016,04,08,15,34,21.50
2016,04,08,15,35,21.30
2016,04,08,15,36,21.30
2016,04,08,15,37,21.30
2016,04,08,15,38,21.30
2016,04,08,15,39,21.30
2016,04,08,15,40,21.30
2016,04,08,15,41,21.40
2016,04,08,15,42,21.30
2016,04,08,15,43,21.30
2016,04,08,15,44,21.40
2016,04,08,15,45,21.40
2016,04,08,15,46,21.40
2016,04,08,15,47,21.30
2016,04,08,15,48,21.30
2016,04,08,15,49,21.20
2016,04,08,15,50,21.10
2016,04,08,15,51,21.10
2016,04,08,15,52,21.10
2016,04,08,15,53,21.10
2016,04,08,15,54,21.10
2016,04,08,15,55,21.10
2016,04,08,15,56,21.00
2016,04,08,15,57,21.00
2016,04,08,15,58,20.90
2016,04,08,15,59,20.90
2016,04,08,16,00,20.90
2016,04,08,16,01,20.80
2016,04,08,16,02,20.80
2016,04,08,16,03,20.90
2016,04,08,16,04,20.90
2016,04,08,16,05,20.90
2016,04,08,16,06,21.00
2016,04,08,16,07,21.20
2016,04,08,16,08,21.30
2016,04,08,16,09,21.40
2016,04,08,16,10,21.50
2016,04,08,16,11,21.40
2016,04,08,16,12,21.40
2016,04,08,16,13,21.40
2016,04,08,16,14,21.30
2016,04,08,16,15,21.30
2016,04,08,16,16,21.30
2016,04,08,16,17,21.20
2016,04,08,16,18,21.30
2016,04,08,16,19,21.20
2016,04,08,16,20,21.20
2016,04,08,16,21,21.20
2016,04,08,16,22,21.20
2016,04,08,16,23,21.40
2016,04,08,16,24,21.40
2016,04,08,16,25,21.40
2016,04,08,16,26,21.30
2016,04,08,16,27,21.40
2016,04,08,16,28,21.50
2016,04,08,16,29,21.60
2016,04,08,16,30,21.60
2016,04,08,16,31,21.60
2016,04,08,16,32,21.50
2016,04,08,16,33,21.40
2016,04,08,16,34,21.30
2016,04,08,16,35,21.30
2016,04,08,16,36,21.30
2016,04,08,16,37,21.20
2016,04,08,16,38,21.20
2016,04,08,16,39,21.20
2016,04,08,16,40,21.30
2016,04,08,16,41,21.20
2016,04,08,16,42,21.10
2016,04,08,16,43,21.00
2016,04,08,16,44,20.90
2016,04,08,16,45,20.80
2016,04,08,16,46,20.70
2016,04,08,16,47,20.70
2016,04,08,16,48,20.70
2016,04,08,16,49,20.60
2016,04,08,16,50,20.60
2016,04,08,16,51,20.50
2016,04,08,16,52,20.50
2016,04,08,16,53,20.40
2016,04,08,16,54,20.50
2016,04,08,16,55,20.50
2016,04,08,16,56,20.40
2016,04,08,16,57,20.40
2016,04,08,16,58,20.40
2016,04,08,16,59,20.30
2016,04,08,17,00,20.30
2016,04,08,17,01,20.30
2016,04,08,17,02,20.20
2016,04,08,17,03,20.10
2016,04,08,17,04,20.00
2016,04,08,17,05,19.90
2016,04,08,17,06,19.80
2016,04,08,17,07,19.70
2016,04,08,17,08,19.70
2016,04,08,17,09,19.60
2016,04,08,17,10,19.60
2016,04,08,17,11,19.50
2016,04,08,17,12,19.40
2016,04,08,17,13,19.30
2016,04,08,17,14,19.30
2016,04,08,17,15,19.20
2016,04,08,17,16,19.30
2016,04,08,17,17,19.30
2016,04,08,17,18,19.40
2016,04,08,17,19,19.40
2016,04,08,17,20,19.40
2016,04,08,17,21,19.40
2016,04,08,17,22,19.30
2016,04,08,17,23,19.30
2016,04,08,17,24,19.30
2016,04,08,17,25,19.40
2016,04,08,17,26,19.50
2016,04,08,17,27,19.50
2016,04,08,17,28,19.60
2016,04,08,17,29,19.60
2016,04,08,17,30,19.70
2016,04,08,17,31,19.70
2016,04,08,17,32,19.70
2016,04,08,17,33,19.70
2016,04,08,17,34,19.80
2016,04,08,17,35,19.80
2016,04,08,17,36,19.80
2016,04,08,17,37,19.80
2016,04,08,17,38,19.90